This is the latest recevied weather packets stored in our database for station/object OK1FET-4. If no packets are shown the sender has not sent any weather packets the latest 10 day(s).
| Time | Temp. | Humidity | Pressure | Rain* | Wind** | Luminosity | Snow |
|---|---|---|---|---|---|---|---|
| 1788257437 | 20° C | 59% | 1021.9 hPa | - | - | - | - |
| 1788257136 | 20.56° C | 58% | 1021.9 hPa | - | - | - | - |
| 1788256835 | 21.11° C | 59% | 1021.9 hPa | - | - | - | - |
| 1788256534 | 20.56° C | 61% | 1021.9 hPa | - | - | - | - |
| 1788256233 | 20.56° C | 61% | 1021.8 hPa | - | - | - | - |
| 1788255932 | 20° C | 62% | 1021.8 hPa | - | - | - | - |
| 1788255631 | 19.44° C | 62% | 1021.7 hPa | - | - | - | - |
| 1788255331 | 19.44° C | 63% | 1021.7 hPa | - | - | - | - |
| 1788255030 | 19.44° C | 64% | 1021.8 hPa | - | - | - | - |
| 1788254729 | 19.44° C | 64% | 1021.8 hPa | - | - | - | - |
| 1788254428 | 18.89° C | 64% | 1021.8 hPa | - | - | - | - |
| 1788254127 | 18.89° C | 64% | 1021.8 hPa | - | - | - | - |
| 1788253826 | 18.89° C | 64% | 1021.8 hPa | - | - | - | - |
| 1788253527 | 19.44° C | 63% | 1021.9 hPa | - | - | - | - |
| 1788253225 | 18.89° C | 63% | 1021.9 hPa | - | - | - | - |
| 1788252924 | 18.89° C | 62% | 1021.7 hPa | - | - | - | - |
| 1788252640 | 18.89° C | 63% | 1021.7 hPa | - | - | - | - |
| 1788252322 | 18.89° C | 62% | 1021.5 hPa | - | - | - | - |
| 1788252021 | 18.89° C | 62% | 1021.4 hPa | - | - | - | - |
| 1788251725 | 18.89° C | 62% | 1021.5 hPa | - | - | - | - |
| 1788251420 | 18.89° C | 63% | 1021.5 hPa | - | - | - | - |
| 1788251119 | 18.89° C | 64% | 1021.4 hPa | - | - | - | - |
| 1788250818 | 18.89° C | 64% | 1021.4 hPa | - | - | - | - |
| 1788250518 | 18.33° C | 63% | 1021.3 hPa | - | - | - | - |
| 1788250217 | 18.33° C | 64% | 1021.2 hPa | - | - | - | - |
* Rain since midnight (hover to see other rain measurements)
** Current wind speed in m/s (hover to see current wind gust speed)